Year,Month,Day,Hour,Minute,Value (Times are PST for temperature in C)
2009,08,31,11,01,19.80
2009,08,31,11,02,19.80
2009,08,31,11,03,19.70
2009,08,31,11,04,19.70
2009,08,31,11,05,19.70
2009,08,31,11,06,19.70
2009,08,31,11,07,19.70
2009,08,31,11,08,19.70
2009,08,31,11,09,19.60
2009,08,31,11,10,19.60
2009,08,31,11,11,19.50
2009,08,31,11,12,19.50
2009,08,31,11,13,19.50
2009,08,31,11,14,19.50
2009,08,31,11,15,19.50
2009,08,31,11,16,19.40
2009,08,31,11,17,19.30
2009,08,31,11,18,19.20
2009,08,31,11,19,19.20
2009,08,31,11,20,19.10
2009,08,31,11,21,19.10
2009,08,31,11,22,19.00
2009,08,31,11,23,19.10
2009,08,31,11,24,19.10
2009,08,31,11,25,19.20
2009,08,31,11,26,19.30
2009,08,31,11,27,19.40
2009,08,31,11,28,19.40
2009,08,31,11,29,19.50
2009,08,31,11,30,19.60
2009,08,31,11,31,19.70
2009,08,31,11,32,19.70
2009,08,31,11,33,19.70
2009,08,31,11,34,19.80
2009,08,31,11,35,19.80
2009,08,31,11,36,19.80
2009,08,31,11,37,19.80
2009,08,31,11,38,19.80
2009,08,31,11,39,19.80
2009,08,31,11,40,19.80
2009,08,31,11,41,19.80
2009,08,31,11,42,19.80
2009,08,31,11,43,19.80
2009,08,31,11,44,19.80
2009,08,31,11,45,19.90
2009,08,31,11,46,20.00
2009,08,31,11,47,20.10
2009,08,31,11,48,20.20
2009,08,31,11,49,20.30
2009,08,31,11,50,20.30
2009,08,31,11,51,20.40
2009,08,31,11,52,20.40
2009,08,31,11,53,20.50
2009,08,31,11,54,20.60
2009,08,31,11,55,20.70
2009,08,31,11,56,20.70
2009,08,31,11,57,20.80
2009,08,31,11,58,20.80
2009,08,31,11,59,20.80
2009,08,31,12,00,20.80
2009,08,31,12,01,20.70
2009,08,31,12,02,20.60
2009,08,31,12,03,20.60
2009,08,31,12,04,20.50
2009,08,31,12,05,20.50
2009,08,31,12,06,20.50
2009,08,31,12,07,20.50
2009,08,31,12,08,20.50
2009,08,31,12,09,20.60
2009,08,31,12,10,20.60
2009,08,31,12,11,20.60
2009,08,31,12,12,20.70
2009,08,31,12,13,20.70
2009,08,31,12,14,20.70
2009,08,31,12,15,20.70
2009,08,31,12,16,20.70
2009,08,31,12,17,20.70
2009,08,31,12,18,20.70
2009,08,31,12,19,20.70
2009,08,31,12,20,20.60
2009,08,31,12,21,20.60
2009,08,31,12,22,20.60
2009,08,31,12,23,20.60
2009,08,31,12,24,20.60
2009,08,31,12,25,20.70
2009,08,31,12,26,20.70
2009,08,31,12,27,20.70
2009,08,31,12,28,20.70
2009,08,31,12,29,20.70
2009,08,31,12,30,20.70
2009,08,31,12,31,20.80
2009,08,31,12,32,20.80
2009,08,31,12,33,20.80
2009,08,31,12,34,20.90
2009,08,31,12,35,21.00
2009,08,31,12,36,21.10
2009,08,31,12,37,21.20
2009,08,31,12,38,21.30
2009,08,31,12,39,21.30
2009,08,31,12,40,21.30
2009,08,31,12,41,21.30
2009,08,31,12,42,21.30
2009,08,31,12,43,21.30
2009,08,31,12,44,21.20
2009,08,31,12,45,21.10
2009,08,31,12,46,21.00
2009,08,31,12,47,20.90
2009,08,31,12,48,20.90
2009,08,31,12,49,20.80
2009,08,31,12,50,20.70
2009,08,31,12,51,20.60
2009,08,31,12,52,20.50
2009,08,31,12,53,20.50
2009,08,31,12,54,20.60
2009,08,31,12,55,20.60
2009,08,31,12,56,20.60
2009,08,31,12,57,20.60
2009,08,31,12,58,20.70
2009,08,31,12,59,20.70
2009,08,31,13,00,20.70
2009,08,31,13,01,20.80
2009,08,31,13,02,20.80
2009,08,31,13,03,20.90
2009,08,31,13,04,20.90
2009,08,31,13,05,21.00
2009,08,31,13,06,21.10
2009,08,31,13,07,21.10
2009,08,31,13,08,21.10
2009,08,31,13,09,21.10
2009,08,31,13,10,21.10
2009,08,31,13,11,21.10
2009,08,31,13,12,21.00
2009,08,31,13,13,21.00
2009,08,31,13,14,21.00
2009,08,31,13,15,21.00
2009,08,31,13,16,21.10
2009,08,31,13,17,21.10
2009,08,31,13,18,21.10
2009,08,31,13,19,21.10
2009,08,31,13,20,21.10
2009,08,31,13,21,21.10
2009,08,31,13,22,21.20
2009,08,31,13,23,21.20
2009,08,31,13,24,21.20
2009,08,31,13,25,21.10
2009,08,31,13,26,21.10
2009,08,31,13,27,21.00
2009,08,31,13,28,20.90
2009,08,31,13,29,20.90
2009,08,31,13,30,21.00
2009,08,31,13,31,21.00
2009,08,31,13,32,21.00
2009,08,31,13,33,20.90
2009,08,31,13,34,20.90
2009,08,31,13,35,20.90
2009,08,31,13,36,20.90
2009,08,31,13,37,20.90
2009,08,31,13,38,20.90
2009,08,31,13,39,20.90
2009,08,31,13,40,20.90
2009,08,31,13,41,20.90
2009,08,31,13,42,20.90
2009,08,31,13,43,20.90
2009,08,31,13,44,20.90
2009,08,31,13,45,21.00
2009,08,31,13,46,21.10
2009,08,31,13,47,21.20
2009,08,31,13,48,21.30
2009,08,31,13,49,21.30
2009,08,31,13,50,21.40
2009,08,31,13,51,21.40
2009,08,31,13,52,21.40
2009,08,31,13,53,21.40
2009,08,31,13,54,21.40
2009,08,31,13,55,21.40
2009,08,31,13,56,21.30
2009,08,31,13,57,21.30
2009,08,31,13,58,21.30
2009,08,31,13,59,21.20
2009,08,31,14,00,21.20
2009,08,31,14,01,21.30
2009,08,31,14,02,21.30
2009,08,31,14,03,21.30
2009,08,31,14,04,21.40
2009,08,31,14,05,21.40
2009,08,31,14,06,21.50
2009,08,31,14,07,21.50
2009,08,31,14,08,21.50
2009,08,31,14,09,21.50
2009,08,31,14,10,21.40
2009,08,31,14,11,21.40
2009,08,31,14,12,21.40
2009,08,31,14,13,21.50
2009,08,31,14,14,21.50
2009,08,31,14,15,21.50
2009,08,31,14,16,21.60
2009,08,31,14,17,21.60
2009,08,31,14,18,21.60
2009,08,31,14,19,21.50
2009,08,31,14,20,21.50
2009,08,31,14,21,21.40
2009,08,31,14,22,21.50
2009,08,31,14,23,21.60
2009,08,31,14,24,21.60
2009,08,31,14,25,21.60
2009,08,31,14,26,21.50
2009,08,31,14,27,21.50
2009,08,31,14,28,21.40
2009,08,31,14,29,21.40
2009,08,31,14,30,21.50
2009,08,31,14,31,21.50
2009,08,31,14,32,21.40
2009,08,31,14,33,21.40
2009,08,31,14,34,21.40
2009,08,31,14,35,21.40
2009,08,31,14,36,21.50
2009,08,31,14,37,21.50
2009,08,31,14,38,21.60
2009,08,31,14,39,21.60
2009,08,31,14,40,21.70
2009,08,31,14,41,21.80
2009,08,31,14,42,21.80
2009,08,31,14,43,21.80
2009,08,31,14,44,21.80
2009,08,31,14,45,21.80
2009,08,31,14,46,21.80
2009,08,31,14,47,21.80
2009,08,31,14,48,21.80
2009,08,31,14,49,21.80
2009,08,31,14,50,21.80
2009,08,31,14,51,21.80
2009,08,31,14,52,21.80
2009,08,31,14,53,21.80
2009,08,31,14,54,21.80
2009,08,31,14,55,21.90
2009,08,31,14,56,21.80
2009,08,31,14,57,21.80
2009,08,31,14,58,21.80
2009,08,31,14,59,21.70
2009,08,31,15,00,21.70
2009,08,31,15,01,21.80
2009,08,31,15,02,21.80
2009,08,31,15,03,21.80
2009,08,31,15,04,21.80
2009,08,31,15,05,21.80
2009,08,31,15,06,21.80
2009,08,31,15,07,21.80
2009,08,31,15,08,21.80
2009,08,31,15,09,21.80
2009,08,31,15,10,21.90
2009,08,31,15,11,21.90
2009,08,31,15,12,21.90
2009,08,31,15,13,21.90
2009,08,31,15,14,21.80
2009,08,31,15,15,21.80
2009,08,31,15,16,21.80
2009,08,31,15,17,21.90
2009,08,31,15,18,21.90
2009,08,31,15,19,21.90
2009,08,31,15,20,22.00
2009,08,31,15,21,22.10
2009,08,31,15,22,22.10
2009,08,31,15,23,22.20
2009,08,31,15,24,22.20
2009,08,31,15,25,22.20
2009,08,31,15,26,22.20
2009,08,31,15,27,22.20
2009,08,31,15,28,22.20
2009,08,31,15,29,22.30
2009,08,31,15,30,22.30
2009,08,31,15,31,22.30
2009,08,31,15,32,22.30
2009,08,31,15,33,22.40
2009,08,31,15,34,22.30
2009,08,31,15,35,22.30
2009,08,31,15,36,22.20
2009,08,31,15,37,22.20
2009,08,31,15,38,22.20
2009,08,31,15,39,22.20
2009,08,31,15,40,22.10
2009,08,31,15,41,22.10
2009,08,31,15,42,22.10
2009,08,31,15,43,22.10
2009,08,31,15,44,22.10
2009,08,31,15,45,22.00
2009,08,31,15,46,22.00
2009,08,31,15,47,22.00
2009,08,31,15,48,21.90
2009,08,31,15,49,21.90
2009,08,31,15,50,21.90
2009,08,31,15,51,21.90
2009,08,31,15,52,21.90
2009,08,31,15,53,21.90
2009,08,31,15,54,21.90
2009,08,31,15,55,21.90
2009,08,31,15,56,21.90
2009,08,31,15,57,21.90
2009,08,31,15,58,21.90
2009,08,31,15,59,21.90
2009,08,31,16,00,21.80
2009,08,31,16,01,21.70
2009,08,31,16,02,21.70
2009,08,31,16,03,21.60
2009,08,31,16,04,21.50
2009,08,31,16,05,21.50
2009,08,31,16,06,21.40
2009,08,31,16,07,21.40
2009,08,31,16,08,21.40
2009,08,31,16,09,21.30
2009,08,31,16,10,21.30
2009,08,31,16,11,21.30
2009,08,31,16,12,21.30
2009,08,31,16,13,21.30
2009,08,31,16,14,21.30
2009,08,31,16,15,21.30
2009,08,31,16,16,21.30
2009,08,31,16,17,21.30
2009,08,31,16,18,21.30
2009,08,31,16,19,21.40
2009,08,31,16,20,21.30
2009,08,31,16,21,21.30
2009,08,31,16,22,21.30
2009,08,31,16,23,21.30
2009,08,31,16,24,21.30
2009,08,31,16,25,21.30
2009,08,31,16,26,21.20
2009,08,31,16,27,21.20
2009,08,31,16,28,21.10
2009,08,31,16,29,21.10
2009,08,31,16,30,21.10
2009,08,31,16,31,21.10
2009,08,31,16,32,21.10
2009,08,31,16,33,21.10
2009,08,31,16,34,21.10
2009,08,31,16,35,21.10
2009,08,31,16,36,21.20
2009,08,31,16,37,21.20
2009,08,31,16,38,21.30
2009,08,31,16,39,21.30
2009,08,31,16,40,21.30
2009,08,31,16,41,21.30
2009,08,31,16,42,21.30
2009,08,31,16,43,21.30
2009,08,31,16,44,21.30
2009,08,31,16,45,21.30
2009,08,31,16,46,21.30
2009,08,31,16,47,21.30
2009,08,31,16,48,21.30
2009,08,31,16,49,21.30
2009,08,31,16,50,21.30
2009,08,31,16,51,21.30
2009,08,31,16,52,21.30
2009,08,31,16,53,21.30
2009,08,31,16,54,21.30
2009,08,31,16,55,21.30
2009,08,31,16,56,21.20
2009,08,31,16,57,21.30
2009,08,31,16,58,21.30
2009,08,31,16,59,21.30
2009,08,31,17,00,21.30
2009,08,31,17,01,21.40
2009,08,31,17,02,21.40
2009,08,31,17,03,21.40
2009,08,31,17,04,21.50
2009,08,31,17,05,21.50
2009,08,31,17,06,21.50
2009,08,31,17,07,21.40
2009,08,31,17,08,21.40
2009,08,31,17,09,21.40
2009,08,31,17,10,21.40
2009,08,31,17,11,21.40
2009,08,31,17,12,21.40
2009,08,31,17,13,21.40
2009,08,31,17,14,21.40
2009,08,31,17,15,21.40
2009,08,31,17,16,21.40
2009,08,31,17,17,21.40
2009,08,31,17,18,21.30
2009,08,31,17,19,21.30
2009,08,31,17,20,21.30
2009,08,31,17,21,21.30
2009,08,31,17,22,21.30
2009,08,31,17,23,21.30
2009,08,31,17,24,21.20
2009,08,31,17,25,21.20
2009,08,31,17,26,21.20
2009,08,31,17,27,21.10
2009,08,31,17,28,21.10
2009,08,31,17,29,21.10
2009,08,31,17,30,21.10
2009,08,31,17,31,21.10
2009,08,31,17,32,21.10
2009,08,31,17,33,21.10
2009,08,31,17,34,21.10
2009,08,31,17,35,21.10
2009,08,31,17,36,21.10
2009,08,31,17,37,21.20
2009,08,31,17,38,21.20
2009,08,31,17,39,21.20
2009,08,31,17,40,21.20
2009,08,31,17,41,21.20
2009,08,31,17,42,21.20
2009,08,31,17,43,21.20
2009,08,31,17,44,21.20
2009,08,31,17,45,21.10
2009,08,31,17,46,21.10
2009,08,31,17,47,21.10
2009,08,31,17,48,21.10
2009,08,31,17,49,21.00
2009,08,31,17,50,21.00
2009,08,31,17,51,21.00
2009,08,31,17,52,21.00
2009,08,31,17,53,21.00
2009,08,31,17,54,20.90
2009,08,31,17,55,20.90
2009,08,31,17,56,20.90
2009,08,31,17,57,20.90
2009,08,31,17,58,20.80
2009,08,31,17,59,20.80
2009,08,31,18,00,20.80
2009,08,31,18,01,20.80
2009,08,31,18,02,20.80
2009,08,31,18,03,20.80
2009,08,31,18,04,20.80
2009,08,31,18,05,20.80
2009,08,31,18,06,20.80
2009,08,31,18,07,20.80
2009,08,31,18,08,20.80
2009,08,31,18,09,20.80
2009,08,31,18,10,20.70
2009,08,31,18,11,20.70
2009,08,31,18,12,20.70
2009,08,31,18,13,20.70
2009,08,31,18,14,20.70
2009,08,31,18,15,20.60
2009,08,31,18,16,20.60
2009,08,31,18,17,20.60
2009,08,31,18,18,20.60
2009,08,31,18,19,20.60
2009,08,31,18,20,20.60
2009,08,31,18,21,20.60
2009,08,31,18,22,20.60
2009,08,31,18,23,20.70
2009,08,31,18,24,20.70
2009,08,31,18,25,20.70
2009,08,31,18,26,20.70
2009,08,31,18,27,20.70
2009,08,31,18,28,20.80
2009,08,31,18,29,20.80
2009,08,31,18,30,20.70
2009,08,31,18,31,20.80
2009,08,31,18,32,20.70
2009,08,31,18,33,20.70
2009,08,31,18,34,20.70
2009,08,31,18,35,20.70
2009,08,31,18,36,20.70
2009,08,31,18,37,20.70
2009,08,31,18,38,20.70
2009,08,31,18,39,20.70
2009,08,31,18,40,20.70
2009,08,31,18,41,20.70
2009,08,31,18,42,20.70
2009,08,31,18,43,20.70
2009,08,31,18,44,20.70
2009,08,31,18,45,20.70
2009,08,31,18,46,20.70
2009,08,31,18,47,20.70
2009,08,31,18,48,20.70
2009,08,31,18,49,20.70
2009,08,31,18,50,20.70
2009,08,31,18,51,20.60
2009,08,31,18,52,20.60
2009,08,31,18,53,20.50
2009,08,31,18,54,20.50
2009,08,31,18,55,20.40
2009,08,31,18,56,20.40
2009,08,31,18,57,20.40
2009,08,31,18,58,20.30
2009,08,31,18,59,20.30
2009,08,31,19,00,20.30
2009,08,31,19,01,20.20
2009,08,31,19,02,20.20
2009,08,31,19,03,20.10
2009,08,31,19,04,20.10
2009,08,31,19,05,20.10
2009,08,31,19,06,20.10
2009,08,31,19,07,20.10
2009,08,31,19,08,20.10
2009,08,31,19,09,20.10
2009,08,31,19,10,20.10
2009,08,31,19,11,20.10
2009,08,31,19,12,20.10
2009,08,31,19,13,20.10
2009,08,31,19,14,20.00
2009,08,31,19,15,20.00
2009,08,31,19,16,20.00
2009,08,31,19,17,19.90
2009,08,31,19,18,19.90
2009,08,31,19,19,19.90
2009,08,31,19,20,19.80
2009,08,31,19,21,19.80
2009,08,31,19,22,19.70
2009,08,31,19,23,19.70
2009,08,31,19,24,19.60
2009,08,31,19,25,19.60
2009,08,31,19,26,19.60
2009,08,31,19,27,19.60
2009,08,31,19,28,19.60
2009,08,31,19,29,19.50
2009,08,31,19,30,19.50
2009,08,31,19,31,19.50
2009,08,31,19,32,19.40
2009,08,31,19,33,19.40
2009,08,31,19,34,19.40
2009,08,31,19,35,19.30
2009,08,31,19,36,19.30
2009,08,31,19,37,19.30
2009,08,31,19,38,19.20
2009,08,31,19,39,19.20
2009,08,31,19,40,19.20
2009,08,31,19,41,19.20
2009,08,31,19,42,19.10
2009,08,31,19,43,19.10
2009,08,31,19,44,19.10
2009,08,31,19,45,19.00
2009,08,31,19,46,19.00
2009,08,31,19,47,18.90
2009,08,31,19,48,18.90
2009,08,31,19,49,18.80
2009,08,31,19,50,18.80
2009,08,31,19,51,18.80
2009,08,31,19,52,18.80
2009,08,31,19,53,18.70
2009,08,31,19,54,18.70
2009,08,31,19,55,18.70
2009,08,31,19,56,18.60
2009,08,31,19,57,18.60
2009,08,31,19,58,18.60
2009,08,31,19,59,18.60
2009,08,31,20,00,18.60
2009,08,31,20,01,18.50
2009,08,31,20,02,18.50
2009,08,31,20,03,18.50
2009,08,31,20,04,18.40
2009,08,31,20,05,18.40
2009,08,31,20,06,18.40
2009,08,31,20,07,18.40
2009,08,31,20,08,18.30
2009,08,31,20,09,18.30
2009,08,31,20,10,18.30
2009,08,31,20,11,18.30
2009,08,31,20,12,18.30
2009,08,31,20,13,18.20
2009,08,31,20,14,18.20
2009,08,31,20,15,18.20
2009,08,31,20,16,18.10
2009,08,31,20,17,18.10
2009,08,31,20,18,18.10
2009,08,31,20,19,18.00
2009,08,31,20,20,18.00
2009,08,31,20,21,18.00
2009,08,31,20,22,17.90
2009,08,31,20,23,17.90
2009,08,31,20,24,17.90
2009,08,31,20,25,17.90
2009,08,31,20,26,17.80
2009,08,31,20,27,17.80
2009,08,31,20,28,17.80
2009,08,31,20,29,17.80
2009,08,31,20,30,17.80
2009,08,31,20,31,17.80
2009,08,31,20,32,17.70
2009,08,31,20,33,17.70
2009,08,31,20,34,17.70
2009,08,31,20,35,17.70
2009,08,31,20,36,17.70
2009,08,31,20,37,17.60
2009,08,31,20,38,17.60
2009,08,31,20,39,17.60
2009,08,31,20,40,17.60
2009,08,31,20,41,17.60
2009,08,31,20,42,17.50
2009,08,31,20,43,17.50
2009,08,31,20,44,17.50
2009,08,31,20,45,17.50
2009,08,31,20,46,17.40
2009,08,31,20,47,17.40
2009,08,31,20,48,17.40
2009,08,31,20,49,17.40
2009,08,31,20,50,17.40
2009,08,31,20,51,17.30
2009,08,31,20,52,17.30
2009,08,31,20,53,17.30
2009,08,31,20,54,17.30
2009,08,31,20,55,17.30
2009,08,31,20,56,17.30
2009,08,31,20,57,17.30
2009,08,31,20,58,17.20
2009,08,31,20,59,17.20
2009,08,31,21,00,17.20
2009,08,31,21,01,17.20
2009,08,31,21,02,17.20
2009,08,31,21,03,17.20
2009,08,31,21,04,17.20
2009,08,31,21,05,17.10
2009,08,31,21,06,17.10
2009,08,31,21,07,17.10
2009,08,31,21,08,17.10
2009,08,31,21,09,17.10
2009,08,31,21,10,17.10
2009,08,31,21,11,17.10
2009,08,31,21,12,17.00
2009,08,31,21,13,17.00
2009,08,31,21,14,17.00
2009,08,31,21,15,17.00
2009,08,31,21,16,17.00
2009,08,31,21,17,16.90
2009,08,31,21,18,16.90
2009,08,31,21,19,16.90
2009,08,31,21,20,16.90
2009,08,31,21,21,16.90
2009,08,31,21,22,16.80
2009,08,31,21,23,16.80
2009,08,31,21,24,16.80
2009,08,31,21,25,16.70
2009,08,31,21,26,16.70
2009,08,31,21,27,16.70
2009,08,31,21,28,16.70
2009,08,31,21,29,16.60
2009,08,31,21,30,16.60
2009,08,31,21,31,16.60
2009,08,31,21,32,16.60
2009,08,31,21,33,16.50
2009,08,31,21,34,16.50
2009,08,31,21,35,16.40
2009,08,31,21,36,16.40
2009,08,31,21,37,16.20
2009,08,31,21,38,16.10
2009,08,31,21,39,16.00
2009,08,31,21,40,15.90
2009,08,31,21,41,15.80
2009,08,31,21,42,15.80
2009,08,31,21,43,15.70
2009,08,31,21,44,15.60
2009,08,31,21,45,15.60
2009,08,31,21,46,15.50
2009,08,31,21,47,15.50
2009,08,31,21,48,15.40
2009,08,31,21,49,15.40
2009,08,31,21,50,15.30
2009,08,31,21,51,15.30
2009,08,31,21,52,15.30
2009,08,31,21,53,15.20
2009,08,31,21,54,15.20
2009,08,31,21,55,15.20
2009,08,31,21,56,15.10
2009,08,31,21,57,15.10
2009,08,31,21,58,15.00
2009,08,31,21,59,15.00
2009,08,31,22,00,15.00
2009,08,31,22,01,14.90
2009,08,31,22,02,14.90
2009,08,31,22,03,14.90
2009,08,31,22,04,14.90
2009,08,31,22,05,14.90
2009,08,31,22,06,14.80
2009,08,31,22,07,14.80
2009,08,31,22,08,14.80
2009,08,31,22,09,14.80
2009,08,31,22,10,14.80
2009,08,31,22,11,14.80
2009,08,31,22,12,14.80
2009,08,31,22,13,14.80
2009,08,31,22,14,14.80
2009,08,31,22,15,14.70
2009,08,31,22,16,14.70
2009,08,31,22,17,14.70
2009,08,31,22,18,14.70
2009,08,31,22,19,14.70
2009,08,31,22,20,14.70
2009,08,31,22,21,14.60
2009,08,31,22,22,14.60
2009,08,31,22,23,14.60
2009,08,31,22,24,14.60
2009,08,31,22,25,14.60
2009,08,31,22,26,14.60
2009,08,31,22,27,14.60
2009,08,31,22,28,14.60
2009,08,31,22,29,14.50
2009,08,31,22,30,14.50
2009,08,31,22,31,14.50
2009,08,31,22,32,14.50
2009,08,31,22,33,14.40
2009,08,31,22,34,14.40
2009,08,31,22,35,14.40
2009,08,31,22,36,14.40
2009,08,31,22,37,14.40
2009,08,31,22,38,14.40
2009,08,31,22,39,14.30
2009,08,31,22,40,14.30
2009,08,31,22,41,14.30
2009,08,31,22,42,14.20
2009,08,31,22,43,14.20
2009,08,31,22,44,14.20
2009,08,31,22,45,14.20
2009,08,31,22,46,14.20
2009,08,31,22,47,14.20
2009,08,31,22,48,14.20
2009,08,31,22,49,14.10
2009,08,31,22,50,14.10
2009,08,31,22,51,14.10
2009,08,31,22,52,14.10
2009,08,31,22,53,14.10
2009,08,31,22,54,14.10
2009,08,31,22,55,14.10
2009,08,31,22,56,14.10
2009,08,31,22,57,14.10
2009,08,31,22,58,14.10
2009,08,31,22,59,14.10
2009,08,31,23,00,14.00
2009,08,31,23,01,14.00
2009,08,31,23,02,14.00
2009,08,31,23,03,14.00
2009,08,31,23,04,14.00
2009,08,31,23,05,14.00
2009,08,31,23,06,14.00
2009,08,31,23,07,14.00
2009,08,31,23,08,13.90
2009,08,31,23,09,13.90
2009,08,31,23,10,13.90
2009,08,31,23,11,13.90
2009,08,31,23,12,13.90
2009,08,31,23,13,13.90
2009,08,31,23,14,13.90
2009,08,31,23,15,13.80
2009,08,31,23,16,13.80
2009,08,31,23,17,13.80
2009,08,31,23,18,13.80
2009,08,31,23,19,13.80
2009,08,31,23,20,13.80
2009,08,31,23,21,13.80
2009,08,31,23,22,13.80
2009,08,31,23,23,13.80
2009,08,31,23,24,13.80
2009,08,31,23,25,13.70
2009,08,31,23,26,13.70
2009,08,31,23,27,13.70
2009,08,31,23,28,13.70
2009,08,31,23,29,13.70
2009,08,31,23,30,13.80
2009,08,31,23,31,13.80
2009,08,31,23,32,13.80
2009,08,31,23,33,13.80
2009,08,31,23,34,13.80
2009,08,31,23,35,13.80
2009,08,31,23,36,13.80
2009,08,31,23,37,13.70
2009,08,31,23,38,13.70
2009,08,31,23,39,13.70
2009,08,31,23,40,13.70
2009,08,31,23,41,13.70
2009,08,31,23,42,13.70
2009,08,31,23,43,13.70
2009,08,31,23,44,13.70
2009,08,31,23,45,13.70
2009,08,31,23,46,13.70
2009,08,31,23,47,13.70
2009,08,31,23,48,13.70
2009,08,31,23,49,13.70
2009,08,31,23,50,13.70
2009,08,31,23,51,13.70
2009,08,31,23,52,13.60
2009,08,31,23,53,13.60
2009,08,31,23,54,13.60
2009,08,31,23,55,13.60
2009,08,31,23,56,13.60
2009,08,31,23,57,13.60
2009,08,31,23,58,13.60
2009,08,31,23,59,13.60
